CZ-6A DEB

Satellite information

Favourite Embed

Satellite Type and Status

DEBRISIN ORBIT

Key statistics

Satellite CZ-6A DEB at a glance.

Uptime

1128

Days in orbit

Revolutions

≈ 14.2

Per day

Orbit

SSO

Sun Synchronous Orbit

Inclination

98.8

Latest

Satellite identification and parameters

Extended collection of information and parameters for CZ-6A DEB.

Object identification

Identified? True

Debris? True

Object name: CZ-6A DEB

International designator: 2022-151ADQ

Object number (NORAD): 56592

Object ID (CCSDS): 56592

Country: PEOPLES REPUBLIC OF CHINA (PRC)

Current information (Y/N): Y

RCS size: SMALL

Orbital parameters

Period: 101.422 minutes

Inclination: 98.821 deg

SMA: 7204.113 km

Apoapsis: 851.024 km

Periapsis: 800.932 km

RAAN: 353.9596 deg

Eccentricy: 0.0034766

Argument of periapsis: 118.8266 deg

Mean anomaly: 241.6407 deg

Mean motion: 14.19815782 rev/day

Mean motion (dot): 0.00004483 rev/day2

B* drag term: 0.0021223 1/REarth

Two-line elements (TLE)

Creation date: Dec. 12, 2025, 7:26 a.m.

Reference frame: TEME

Reference center: EARTH

Epoch: Dec. 12, 2025, 12:01 a.m. UTC

TLE line 0: 0 CZ-6A DEB

TLE line 1: 1 56592U 22151ADQ 25346.00097979 .00004483 00000-0 21223-2 0 9990

TLE line 2: 2 56592 98.8210 353.9596 0034766 118.8266 241.6407 14.19815782147513

Live tracking on map

Real-time ground track for satellite CZ-6A DEB.

In-orbit conjunctions

A list of the most updated potential collisions computed for object CZ-6A DEB.

Target Orbit TCA Probability of collision Miss distance Type
COSMOS 2219 LEO 2025-08-05 14:33:00 0.001740975 175.0 (m) PAYLOAD
METEOR 1-13 LEO 2025-03-25 08:52:35 0.0001187617 708.0 (m) PAYLOAD
SL-3 R/B LEO 2024-11-11 07:53:31 0.0002440304 101.0 (m) ROCKET BODY
NOAA 14 SSO 2024-09-06 05:56:00 0.000526504 532.0 (m) PAYLOAD
METEOR 1-26 LEO 2024-07-03 12:45:50 0.0001823094 617.0 (m) PAYLOAD

Associated space launch

Chinese satellite reported for atmospheric/ocean/environmental/spatial parameter research purposes, details TBD.

CZ-6A DEB was lifted into orbit during the mission ‘Long March 6A | Yunhai 3’, on board a Long March 6A space rocket.

The launch took place on Nov. 11, 2022, 10:52 p.m. from Launch Complex 9A.

For more information about the launch, click the button.

Launch to space Long March 6A | Yunhai 3
Long March 6A | Yunhai 3

Agency: N/A

Status: Launch Successful

Launch date: Nov. 11, 2022, 10:52 p.m. UTC

Rocket: Long March 6A

Launch pad: Launch Complex 9A

Location: Taiyuan Satellite Launch Center, People's Republic of China

...

Latest news about this satellite

There are no fresh news available about this satellite. Check back as we update our databases every day.


Newsletter sign-up

Weekly statistics, charts and insights to help you stay on top of the space industry.